Time,TemperatureF,DewpointF,PressureIn,WindDirection,WindDirectionDegrees,WindSpeedMPH,WindSpeedGustMPH,Humidity,HourlyPrecipIn,Conditions,Clouds,dailyrainin,SoftwareType,DateUTC
2013-06-05 00:10:00,54.4,48.4,30.03,WSW,249,0.0,0.0,80,0.00,,,0.00,Wunderground v.1.15,2013-06-05 04:10:00,
2013-06-05 00:15:00,54.9,47.8,30.03,West,261,0.0,0.0,77,0.00,,,0.00,Wunderground v.1.15,2013-06-05 04:15:00,
2013-06-05 00:20:00,55.5,47.7,30.03,West,260,0.0,0.0,75,0.00,,,0.00,Wunderground v.1.15,2013-06-05 04:20:00,
2013-06-05 00:30:00,56.2,48.0,30.03,West,259,0.0,0.0,74,0.00,,,0.00,Wunderground v.1.15,2013-06-05 04:30:00,
2013-06-05 00:35:00,56.3,49.2,30.03,West,259,0.0,0.0,77,0.00,,,0.00,Wunderground v.1.15,2013-06-05 04:35:00,
2013-06-05 00:45:00,55.9,49.1,30.03,West,259,0.0,0.0,78,0.00,,,0.00,Wunderground v.1.15,2013-06-05 04:45:00,
2013-06-05 00:50:00,55.4,48.3,30.04,West,259,0.0,0.0,77,0.00,,,0.00,Wunderground v.1.15,2013-06-05 04:50:00,
2013-06-05 00:55:00,55.1,48.4,30.04,West,259,0.0,0.0,78,0.00,,,0.00,Wunderground v.1.15,2013-06-05 04:55:00,
2013-06-05 01:00:00,54.7,48.0,30.04,West,259,0.0,0.0,78,0.00,,,0.00,Wunderground v.1.15,2013-06-05 05:00:00,
2013-06-05 01:10:00,54.1,48.4,30.04,West,259,0.0,0.0,81,0.00,,,0.00,Wunderground v.1.15,2013-06-05 05:10:00,
2013-06-05 01:15:00,53.7,48.0,30.04,West,259,0.0,0.0,81,0.00,,,0.00,Wunderground v.1.15,2013-06-05 05:15:00,
2013-06-05 01:20:00,53.5,48.1,30.04,WSW,254,0.0,0.0,82,0.00,,,0.00,Wunderground v.1.15,2013-06-05 05:20:00,
2013-06-05 01:25:00,53.4,48.4,30.04,WSW,253,0.0,0.0,83,0.00,,,0.00,Wunderground v.1.15,2013-06-05 05:25:00,
2013-06-05 01:35:00,53.1,47.7,30.03,WSW,254,0.0,0.0,82,0.00,,,0.00,Wunderground v.1.15,2013-06-05 05:35:00,
2013-06-05 01:40:00,53.0,47.7,30.03,WSW,254,0.0,0.0,82,0.00,,,0.00,Wunderground v.1.15,2013-06-05 05:40:00,
2013-06-05 01:45:00,53.0,47.7,30.03,WSW,253,0.0,0.0,82,0.00,,,0.00,Wunderground v.1.15,2013-06-05 05:45:00,
2013-06-05 01:55:00,52.7,47.7,30.04,WSW,253,0.0,0.0,83,0.00,,,0.00,Wunderground v.1.15,2013-06-05 05:55:00,
2013-06-05 02:00:00,52.6,47.6,30.04,WSW,253,0.0,0.0,83,0.00,,,0.00,Wunderground v.1.15,2013-06-05 06:00:00,
2013-06-05 02:10:00,52.6,47.9,30.03,WSW,253,0.0,0.0,84,0.00,,,0.00,Wunderground v.1.15,2013-06-05 06:10:00,
2013-06-05 02:15:00,52.6,47.6,30.03,WSW,253,0.0,0.0,83,0.00,,,0.00,Wunderground v.1.15,2013-06-05 06:15:00,
2013-06-05 02:20:00,52.6,47.6,30.04,WSW,253,0.0,0.0,83,0.00,,,0.00,Wunderground v.1.15,2013-06-05 06:20:00,
2013-06-05 02:30:00,52.6,48.2,30.04,WSW,253,0.0,0.0,85,0.00,,,0.00,Wunderground v.1.15,2013-06-05 06:30:00,
2013-06-05 02:35:00,52.5,47.2,30.04,WSW,253,0.0,0.0,82,0.00,,,0.00,Wunderground v.1.15,2013-06-05 06:35:00,
2013-06-05 02:40:00,52.5,47.2,30.04,WSW,253,0.0,0.0,82,0.00,,,0.00,Wunderground v.1.15,2013-06-05 06:40:00,
2013-06-05 02:45:00,52.4,47.1,30.04,WSW,253,0.0,0.0,82,0.00,,,0.00,Wunderground v.1.15,2013-06-05 06:45:00,
2013-06-05 02:55:00,52.4,47.1,30.04,WSW,254,0.0,0.0,82,0.00,,,0.00,Wunderground v.1.15,2013-06-05 06:55:00,
2013-06-05 03:00:00,52.3,47.6,30.04,WSW,254,0.0,0.0,84,0.00,,,0.00,Wunderground v.1.15,2013-06-05 07:00:00,
2013-06-05 03:10:00,52.1,47.4,30.05,WSW,254,0.0,0.0,84,0.00,,,0.00,Wunderground v.1.15,2013-06-05 07:10:00,
2013-06-05 03:15:00,51.9,46.9,30.05,WSW,255,0.0,0.0,83,0.00,,,0.00,Wunderground v.1.15,2013-06-05 07:15:00,
2013-06-05 03:20:00,51.8,46.8,30.05,WSW,255,0.0,0.0,83,0.00,,,0.00,Wunderground v.1.15,2013-06-05 07:20:00,
2013-06-05 03:25:00,51.6,46.9,30.05,WSW,254,0.0,0.0,84,0.00,,,0.00,Wunderground v.1.15,2013-06-05 07:25:00,
2013-06-05 03:35:00,51.3,46.6,30.05,WSW,255,0.0,0.0,84,0.00,,,0.00,Wunderground v.1.15,2013-06-05 07:35:00,
2013-06-05 03:40:00,51.3,47.3,30.05,WSW,255,0.0,0.0,86,0.00,,,0.00,Wunderground v.1.15,2013-06-05 07:40:00,
2013-06-05 03:45:00,51.1,46.7,30.05,WSW,254,0.0,0.0,85,0.00,,,0.00,Wunderground v.1.15,2013-06-05 07:45:00,
2013-06-05 03:55:00,50.7,46.7,30.06,WSW,255,0.0,0.0,86,0.00,,,0.00,Wunderground v.1.15,2013-06-05 07:55:00,
2013-06-05 04:00:00,50.5,46.5,30.06,WSW,254,0.0,0.0,86,0.00,,,0.00,Wunderground v.1.15,2013-06-05 08:00:00,
2013-06-05 04:10:00,50.1,46.4,30.06,WSW,255,0.0,0.0,87,0.00,,,0.00,Wunderground v.1.15,2013-06-05 08:10:00,
2013-06-05 04:20:00,49.7,46.0,30.06,WSW,254,0.0,0.0,87,0.00,,,0.00,Wunderground v.1.15,2013-06-05 08:20:00,
2013-06-05 04:25:00,49.5,46.1,30.06,WSW,254,0.0,0.0,88,0.00,,,0.00,Wunderground v.1.15,2013-06-05 08:25:00,
2013-06-05 04:30:00,49.4,46.0,30.06,WSW,255,0.0,0.0,88,0.00,,,0.00,Wunderground v.1.15,2013-06-05 08:30:00,
2013-06-05 04:35:00,49.2,46.1,30.06,WSW,254,0.0,0.0,89,0.00,,,0.00,Wunderground v.1.15,2013-06-05 08:35:00,
2013-06-05 04:45:00,48.9,45.8,30.07,WSW,255,0.0,0.0,89,0.00,,,0.00,Wunderground v.1.15,2013-06-05 08:45:00,
2013-06-05 04:50:00,48.7,45.9,30.06,WSW,255,0.0,0.0,90,0.00,,,0.00,Wunderground v.1.15,2013-06-05 08:50:00,
2013-06-05 04:55:00,48.6,45.8,30.06,WSW,255,0.0,0.0,90,0.00,,,0.00,Wunderground v.1.15,2013-06-05 08:55:00,
2013-06-05 05:10:00,48.2,45.7,30.07,WSW,255,0.0,0.0,91,0.00,,,0.00,Wunderground v.1.15,2013-06-05 09:10:00,
2013-06-05 05:15:00,48.2,47.1,30.07,WSW,254,0.0,0.0,96,0.00,,,0.00,Wunderground v.1.15,2013-06-05 09:15:00,
2013-06-05 05:25:00,48.2,46.0,30.07,WSW,255,0.0,0.0,92,0.00,,,0.00,Wunderground v.1.15,2013-06-05 09:25:00,
2013-06-05 05:30:00,48.1,45.9,30.07,WSW,255,0.0,0.0,92,0.00,,,0.00,Wunderground v.1.15,2013-06-05 09:30:00,
2013-06-05 05:35:00,48.1,46.2,30.08,WSW,254,0.0,0.0,93,0.00,,,0.00,Wunderground v.1.15,2013-06-05 09:35:00,
2013-06-05 05:45:00,47.8,45.9,30.08,WSW,255,0.0,0.0,93,0.00,,,0.00,Wunderground v.1.15,2013-06-05 09:45:00,
2013-06-05 05:50:00,47.7,45.8,30.08,WSW,254,0.0,0.0,93,0.00,,,0.00,Wunderground v.1.15,2013-06-05 09:50:00,
2013-06-05 05:55:00,47.7,45.8,30.08,WSW,254,0.0,0.0,93,0.00,,,0.00,Wunderground v.1.15,2013-06-05 09:55:00,
2013-06-05 06:00:00,47.6,46.0,30.08,WSW,255,0.0,0.0,94,0.00,,,0.00,Wunderground v.1.15,2013-06-05 10:00:00,
2013-06-05 06:10:00,47.6,46.0,30.08,WSW,255,0.0,0.0,94,0.00,,,0.00,Wunderground v.1.15,2013-06-05 10:10:00,
2013-06-05 06:15:00,47.7,46.1,30.08,WSW,254,0.0,0.0,94,0.00,,,0.00,Wunderground v.1.15,2013-06-05 10:15:00,
2013-06-05 06:20:00,47.8,46.2,30.08,SW,219,0.0,0.0,94,0.00,,,0.00,Wunderground v.1.15,2013-06-05 10:20:00,
2013-06-05 06:30:00,48.2,46.8,30.09,SW,219,0.0,0.0,95,0.00,,,0.00,Wunderground v.1.15,2013-06-05 10:30:00,
2013-06-05 06:35:00,48.4,47.0,30.09,SW,219,0.0,0.0,95,0.00,,,0.00,Wunderground v.1.15,2013-06-05 10:35:00,
2013-06-05 06:40:00,48.6,47.2,30.09,SW,219,0.0,0.0,95,0.00,,,0.00,Wunderground v.1.15,2013-06-05 10:40:00,
2013-06-05 06:50:00,49.3,47.4,30.09,SW,219,0.0,0.0,93,0.00,,,0.00,Wunderground v.1.15,2013-06-05 10:50:00,
2013-06-05 06:55:00,49.9,47.7,30.09,SW,219,0.0,0.0,92,0.00,,,0.00,Wunderground v.1.15,2013-06-05 10:55:00,
2013-06-05 07:00:00,50.6,48.1,30.10,SW,219,0.0,0.0,91,0.00,,,0.00,Wunderground v.1.15,2013-06-05 11:00:00,
2013-06-05 07:10:00,51.8,48.7,30.10,SW,219,0.0,0.0,89,0.00,,,0.00,Wunderground v.1.15,2013-06-05 11:10:00,
2013-06-05 07:15:00,52.4,48.9,30.11,SW,219,0.0,0.0,88,0.00,,,0.00,Wunderground v.1.15,2013-06-05 11:15:00,
2013-06-05 07:20:00,53.0,49.2,30.11,SW,219,0.0,0.0,87,0.00,,,0.00,Wunderground v.1.15,2013-06-05 11:20:00,
2013-06-05 07:30:00,54.8,49.4,30.11,SW,219,0.0,0.0,82,0.00,,,0.00,Wunderground v.1.15,2013-06-05 11:30:00,
2013-06-05 07:35:00,55.7,50.0,30.11,SW,219,0.0,0.0,81,0.00,,,0.00,Wunderground v.1.15,2013-06-05 11:35:00,
2013-06-05 07:40:00,56.7,50.9,30.11,SW,219,0.0,0.0,81,0.00,,,0.00,Wunderground v.1.15,2013-06-05 11:40:00,
2013-06-05 07:45:00,57.3,51.5,30.12,SW,219,0.0,0.0,81,0.00,,,0.00,Wunderground v.1.15,2013-06-05 11:45:00,
2013-06-05 07:55:00,57.8,51.3,30.12,SW,219,0.0,0.0,79,0.00,,,0.00,Wunderground v.1.15,2013-06-05 11:55:00,
2013-06-05 08:00:00,58.2,51.4,30.12,SW,219,0.0,0.0,78,0.00,,,0.00,Wunderground v.1.15,2013-06-05 12:00:00,
2013-06-05 08:10:00,59.6,51.7,30.12,NW,315,0.0,0.0,75,0.00,,,0.00,Wunderground v.1.15,2013-06-05 12:10:00,
2013-06-05 08:20:00,61.0,51.5,30.12,NNE,17,0.0,0.0,71,0.00,,,0.00,Wunderground v.1.15,2013-06-05 12:20:00,
2013-06-05 08:25:00,61.8,52.3,30.12,NNE,17,0.0,0.0,71,0.00,,,0.00,Wunderground v.1.15,2013-06-05 12:25:00,
2013-06-05 08:30:00,62.6,52.3,30.13,NNE,17,0.0,0.0,69,0.00,,,0.00,Wunderground v.1.15,2013-06-05 12:30:00,
2013-06-05 08:40:00,63.4,53.0,30.13,NNE,17,0.0,0.0,69,0.00,,,0.00,Wunderground v.1.15,2013-06-05 12:40:00,
2013-06-05 08:45:00,64.0,52.8,30.13,NNW,346,0.0,0.0,67,0.00,,,0.00,Wunderground v.1.15,2013-06-05 12:45:00,
2013-06-05 08:50:00,64.3,53.5,30.13,NNW,347,0.0,0.0,68,0.00,,,0.00,Wunderground v.1.15,2013-06-05 12:50:00,
2013-06-05 09:00:00,65.0,53.8,30.13,NNW,346,0.0,0.0,67,0.00,,,0.00,Wunderground v.1.15,2013-06-05 13:00:00,
2013-06-05 09:10:00,65.9,53.8,30.13,WNW,292,0.0,0.0,65,0.00,,,0.00,Wunderground v.1.15,2013-06-05 13:10:00,
2013-06-05 09:20:00,65.2,52.7,30.13,WNW,283,0.0,0.0,64,0.00,,,0.00,Wunderground v.1.15,2013-06-05 13:20:00,
2013-06-05 09:25:00,65.3,53.6,30.13,WNW,284,0.0,0.0,66,0.00,,,0.00,Wunderground v.1.15,2013-06-05 13:25:00,
2013-06-05 09:30:00,65.5,53.4,30.12,WNW,283,0.0,0.0,65,0.00,,,0.00,Wunderground v.1.15,2013-06-05 13:30:00,
2013-06-05 09:40:00,65.9,52.5,30.13,WNW,284,0.0,0.0,62,0.00,,,0.00,Wunderground v.1.15,2013-06-05 13:40:00,
2013-06-05 09:45:00,66.5,53.5,30.12,WNW,294,0.0,0.0,63,0.00,,,0.00,Wunderground v.1.15,2013-06-05 13:45:00,
2013-06-05 09:50:00,66.6,53.2,30.12,North,355,1.0,1.0,62,0.00,,,0.00,Wunderground v.1.15,2013-06-05 13:50:00,
2013-06-05 10:00:00,66.7,52.8,30.12,North,350,1.0,1.0,61,0.00,,,0.00,Wunderground v.1.15,2013-06-05 14:00:00,
2013-06-05 10:10:00,66.7,52.4,30.12,North,355,1.0,1.0,60,0.00,,,0.00,Wunderground v.1.15,2013-06-05 14:10:00,
2013-06-05 10:20:00,66.5,53.1,30.12,North,355,1.0,1.0,62,0.00,,,0.00,Wunderground v.1.15,2013-06-05 14:20:00,
2013-06-05 10:25:00,66.1,52.7,30.12,North,355,0.0,1.0,62,0.00,,,0.00,Wunderground v.1.15,2013-06-05 14:25:00,
2013-06-05 10:30:00,66.0,53.0,30.13,North,355,0.0,0.0,63,0.00,,,0.00,Wunderground v.1.15,2013-06-05 14:30:00,
2013-06-05 10:40:00,66.1,53.1,30.12,West,260,1.0,1.0,63,0.00,,,0.00,Wunderground v.1.15,2013-06-05 14:40:00,
2013-06-05 10:45:00,66.4,53.0,30.12,SW,224,2.0,2.0,62,0.00,,,0.00,Wunderground v.1.15,2013-06-05 14:45:00,
2013-06-05 10:50:00,66.5,52.6,30.12,SW,229,1.0,2.0,61,0.00,,,0.00,Wunderground v.1.15,2013-06-05 14:50:00,
2013-06-05 10:55:00,66.6,52.7,30.12,SW,225,1.0,3.0,61,0.00,,,0.00,Wunderground v.1.15,2013-06-05 14:55:00,
2013-06-05 11:10:00,66.9,53.9,30.12,SSW,213,1.0,1.0,63,0.00,,,0.00,Wunderground v.1.15,2013-06-05 15:10:00,
2013-06-05 11:15:00,66.8,52.5,30.12,SW,214,0.0,1.0,60,0.00,,,0.00,Wunderground v.1.15,2013-06-05 15:15:00,
2013-06-05 11:25:00,67.3,54.3,30.11,NW,324,0.0,0.0,63,0.00,,,0.00,Wunderground v.1.15,2013-06-05 15:25:00,
2013-06-05 11:30:00,67.5,53.1,30.11,NW,324,0.0,0.0,60,0.00,,,0.00,Wunderground v.1.15,2013-06-05 15:30:00,
2013-06-05 11:35:00,67.8,53.4,30.11,NW,324,0.0,0.0,60,0.00,,,0.00,Wunderground v.1.15,2013-06-05 15:35:00,
2013-06-05 11:45:00,68.8,53.4,30.11,NNW,331,1.0,4.0,58,0.00,,,0.00,Wunderground v.1.15,2013-06-05 15:45:00,
2013-06-05 11:50:00,69.0,53.6,30.11,NNW,332,0.0,0.0,58,0.00,,,0.00,Wunderground v.1.15,2013-06-05 15:50:00,
2013-06-05 11:55:00,69.4,54.4,30.10,NNW,331,0.0,0.0,59,0.00,,,0.00,Wunderground v.1.15,2013-06-05 15:55:00,
2013-06-05 12:00:00,69.5,55.0,30.10,SW,227,0.0,2.0,60,0.00,,,0.00,Wunderground v.1.15,2013-06-05 16:00:00,
2013-06-05 12:10:00,69.7,53.8,30.10,WSW,257,2.0,3.0,57,0.00,,,0.00,Wunderground v.1.15,2013-06-05 16:10:00,
2013-06-05 12:15:00,70.0,53.6,30.10,West,279,2.0,3.0,56,0.00,,,0.00,Wunderground v.1.15,2013-06-05 16:15:00,
2013-06-05 12:20:00,70.4,55.4,30.10,SW,223,1.0,1.0,59,0.00,,,0.00,Wunderground v.1.15,2013-06-05 16:20:00,
2013-06-05 12:30:00,70.8,54.3,30.09,SW,222,0.0,0.0,56,0.00,,,0.00,Wunderground v.1.15,2013-06-05 16:30:00,
2013-06-05 12:35:00,70.9,53.4,30.09,SW,219,1.0,1.0,54,0.00,,,0.00,Wunderground v.1.15,2013-06-05 16:35:00,
2013-06-05 12:40:00,70.5,54.0,30.09,SW,223,1.0,2.0,56,0.00,,,0.00,Wunderground v.1.15,2013-06-05 16:40:00,
2013-06-05 12:50:00,70.4,54.9,30.09,SSW,202,2.0,2.0,58,0.00,,,0.00,Wunderground v.1.15,2013-06-05 16:50:00,
2013-06-05 12:55:00,70.9,55.9,30.09,SW,232,2.0,6.0,59,0.00,,,0.00,Wunderground v.1.15,2013-06-05 16:55:00,
2013-06-05 13:00:00,71.4,55.4,30.08,West,270,2.0,2.0,57,0.00,,,0.00,Wunderground v.1.15,2013-06-05 17:00:00,
2013-06-05 13:10:00,71.6,55.1,30.08,West,269,1.0,1.0,56,0.00,,,0.00,Wunderground v.1.15,2013-06-05 17:10:00,
2013-06-05 13:15:00,71.4,53.9,30.08,West,273,1.0,1.0,54,0.00,,,0.00,Wunderground v.1.15,2013-06-05 17:15:00,
2013-06-05 13:20:00,72.1,55.0,30.08,WNW,288,1.0,1.0,55,0.00,,,0.00,Wunderground v.1.15,2013-06-05 17:20:00,
2013-06-05 13:25:00,72.4,55.3,30.08,SW,227,1.0,1.0,55,0.00,,,0.00,Wunderground v.1.15,2013-06-05 17:25:00,
2013-06-05 13:35:00,72.6,53.4,30.08,WNW,295,2.0,5.0,51,0.00,,,0.00,Wunderground v.1.15,2013-06-05 17:35:00,
2013-06-05 13:40:00,72.5,53.3,30.08,NW,309,1.0,3.0,51,0.00,,,0.00,Wunderground v.1.15,2013-06-05 17:40:00,
2013-06-05 13:45:00,72.8,55.2,30.07,West,274,1.0,3.0,54,0.00,,,0.00,Wunderground v.1.15,2013-06-05 17:45:00,
2013-06-05 13:50:00,72.9,53.7,30.08,SW,236,1.0,4.0,51,0.00,,,0.00,Wunderground v.1.15,2013-06-05 17:50:00,
2013-06-05 14:00:00,72.4,53.8,30.08,SW,226,1.0,1.0,52,0.00,,,0.00,Wunderground v.1.15,2013-06-05 18:00:00,
2013-06-05 14:10:00,72.7,55.1,30.07,SW,223,1.0,3.0,54,0.00,,,0.00,Wunderground v.1.15,2013-06-05 18:10:00,
2013-06-05 14:15:00,72.9,55.3,30.07,SW,236,1.0,3.0,54,0.00,,,0.00,Wunderground v.1.15,2013-06-05 18:15:00,
2013-06-05 14:20:00,73.0,52.1,30.06,NNE,15,1.0,1.0,48,0.00,,,0.00,Wunderground v.1.15,2013-06-05 18:20:00,
2013-06-05 14:25:00,72.9,54.2,30.06,NNE,15,0.0,1.0,52,0.00,,,0.00,Wunderground v.1.15,2013-06-05 18:25:00,
2013-06-05 14:30:00,72.8,54.1,30.06,SW,226,0.0,1.0,52,0.00,,,0.00,Wunderground v.1.15,2013-06-05 18:30:00,
2013-06-05 14:40:00,73.4,52.5,30.06,WNW,290,1.0,1.0,48,0.00,,,0.00,Wunderground v.1.15,2013-06-05 18:40:00,
2013-06-05 14:50:00,73.8,53.4,30.06,West,279,0.0,7.0,49,0.00,,,0.00,Wunderground v.1.15,2013-06-05 18:50:00,
2013-06-05 14:55:00,74.0,53.1,30.06,NW,323,1.0,7.0,48,0.00,,,0.00,Wunderground v.1.15,2013-06-05 18:55:00,
2013-06-05 15:00:00,74.0,53.6,30.06,West,273,2.0,2.0,49,0.00,,,0.00,Wunderground v.1.15,2013-06-05 19:00:00,
2013-06-05 15:10:00,74.2,52.1,30.05,NE,35,0.0,0.0,46,0.00,,,0.00,Wunderground v.1.15,2013-06-05 19:10:00,
2013-06-05 15:15:00,74.4,52.9,30.05,SW,229,0.0,0.0,47,0.00,,,0.00,Wunderground v.1.15,2013-06-05 19:15:00,
2013-06-05 15:25:00,74.5,53.5,30.04,West,277,0.0,2.0,48,0.00,,,0.00,Wunderground v.1.15,2013-06-05 19:25:00,
2013-06-05 15:30:00,74.8,54.9,30.04,WNW,284,0.0,0.0,50,0.00,,,0.00,Wunderground v.1.15,2013-06-05 19:30:00,
2013-06-05 15:35:00,74.9,54.4,30.03,West,264,0.0,0.0,49,0.00,,,0.00,Wunderground v.1.15,2013-06-05 19:35:00,
2013-06-05 15:45:00,74.2,54.4,30.03,West,264,0.0,0.0,50,0.00,,,0.00,Wunderground v.1.15,2013-06-05 19:45:00,
2013-06-05 15:50:00,73.7,54.4,30.03,SW,218,0.0,4.0,51,0.00,,,0.00,Wunderground v.1.15,2013-06-05 19:50:00,
2013-06-05 16:00:00,73.2,55.6,30.03,SW,220,0.0,0.0,54,0.00,,,0.00,Wunderground v.1.15,2013-06-05 20:00:00,
2013-06-05 16:10:00,72.3,55.2,30.04,SW,220,0.0,0.0,55,0.00,,,0.00,Wunderground v.1.15,2013-06-05 20:10:00,
2013-06-05 16:15:00,71.9,54.9,30.04,SW,219,0.0,0.0,55,0.00,,,0.00,Wunderground v.1.15,2013-06-05 20:15:00,
2013-06-05 16:20:00,71.7,55.2,30.04,SW,219,0.0,0.0,56,0.00,,,0.00,Wunderground v.1.15,2013-06-05 20:20:00,
2013-06-05 16:25:00,71.8,55.3,30.04,SW,219,0.0,0.0,56,0.00,,,0.00,Wunderground v.1.15,2013-06-05 20:25:00,
2013-06-05 16:35:00,72.6,55.0,30.04,SW,219,0.0,0.0,54,0.00,,,0.00,Wunderground v.1.15,2013-06-05 20:35:00,
2013-06-05 16:40:00,73.0,55.9,30.04,SSW,213,2.0,2.0,55,0.00,,,0.00,Wunderground v.1.15,2013-06-05 20:40:00,
2013-06-05 16:45:00,73.3,56.2,30.04,SSW,211,1.0,2.0,55,0.00,,,0.00,Wunderground v.1.15,2013-06-05 20:45:00,
2013-06-05 16:55:00,73.8,56.6,30.04,SW,222,1.0,1.0,55,0.00,,,0.00,Wunderground v.1.15,2013-06-05 20:55:00,
2013-06-05 17:00:00,73.3,55.6,30.04,SSW,209,1.0,4.0,54,0.00,,,0.00,Wunderground v.1.15,2013-06-05 21:00:00,
2013-06-05 17:10:00,73.0,56.4,30.04,SW,225,1.0,2.0,56,0.00,,,0.00,Wunderground v.1.15,2013-06-05 21:10:00,
2013-06-05 17:15:00,72.7,55.1,30.04,SW,215,0.0,2.0,54,0.00,,,0.00,Wunderground v.1.15,2013-06-05 21:15:00,
2013-06-05 17:20:00,72.3,56.7,30.04,WSW,257,0.0,0.0,58,0.00,,,0.00,Wunderground v.1.15,2013-06-05 21:20:00,
2013-06-05 17:25:00,72.5,57.4,30.04,WSW,241,0.0,0.0,59,0.00,,,0.00,Wunderground v.1.15,2013-06-05 21:25:00,
2013-06-05 17:35:00,72.4,56.8,30.04,South,180,0.0,0.0,58,0.00,,,0.00,Wunderground v.1.15,2013-06-05 21:35:00,
2013-06-05 17:40:00,72.2,56.1,30.04,South,176,0.0,0.0,57,0.00,,,0.00,Wunderground v.1.15,2013-06-05 21:40:00,
2013-06-05 17:45:00,71.3,56.2,30.04,South,176,0.0,0.0,59,0.00,,,0.00,Wunderground v.1.15,2013-06-05 21:45:00,
2013-06-05 17:55:00,70.7,56.1,30.04,WSW,254,0.0,0.0,60,0.00,,,0.00,Wunderground v.1.15,2013-06-05 21:55:00,
2013-06-05 18:00:00,70.7,56.1,30.04,West,265,0.0,3.0,60,0.00,,,0.00,Wunderground v.1.15,2013-06-05 22:00:00,
2013-06-05 18:10:00,70.2,55.7,30.04,SE,126,0.0,0.0,60,0.00,,,0.00,Wunderground v.1.15,2013-06-05 22:10:00,
2013-06-05 18:15:00,70.1,55.6,30.04,SE,137,0.0,0.0,60,0.00,,,0.00,Wunderground v.1.15,2013-06-05 22:15:00,
2013-06-05 18:20:00,69.9,55.4,30.04,SSE,153,0.0,0.0,60,0.00,,,0.00,Wunderground v.1.15,2013-06-05 22:20:00,
2013-06-05 18:30:00,69.9,55.4,30.05,West,265,0.0,0.0,60,0.00,,,0.00,Wunderground v.1.15,2013-06-05 22:30:00,
2013-06-05 18:35:00,69.8,55.3,30.05,SSW,210,1.0,1.0,60,0.00,,,0.00,Wunderground v.1.15,2013-06-05 22:35:00,
2013-06-05 18:45:00,69.6,54.6,30.05,WSW,249,0.0,1.0,59,0.00,,,0.00,Wunderground v.1.15,2013-06-05 22:45:00,
2013-06-05 18:50:00,69.3,55.3,30.05,WSW,241,0.0,0.0,61,0.00,,,0.00,Wunderground v.1.15,2013-06-05 22:50:00,
2013-06-05 18:55:00,69.0,55.0,30.05,WSW,240,0.0,0.0,61,0.00,,,0.00,Wunderground v.1.15,2013-06-05 22:55:00,
2013-06-05 19:10:00,68.3,54.8,30.05,ESE,122,0.0,0.0,62,0.00,,,0.00,Wunderground v.1.15,2013-06-05 23:10:00,
2013-06-05 19:20:00,67.8,53.9,30.05,ESE,122,0.0,0.0,61,0.00,,,0.00,Wunderground v.1.15,2013-06-05 23:20:00,
2013-06-05 19:25:00,67.5,53.6,30.05,ESE,122,0.0,0.0,61,0.00,,,0.00,Wunderground v.1.15,2013-06-05 23:25:00,
2013-06-05 19:30:00,67.2,53.3,30.05,ESE,122,0.0,0.0,61,0.00,,,0.00,Wunderground v.1.15,2013-06-05 23:30:00,
2013-06-05 19:35:00,67.0,53.5,30.04,ESE,122,0.0,0.0,62,0.00,,,0.00,Wunderground v.1.15,2013-06-05 23:35:00,
2013-06-05 19:45:00,66.7,53.7,30.04,ESE,122,0.0,0.0,63,0.00,,,0.00,Wunderground v.1.15,2013-06-05 23:45:00,
2013-06-05 19:50:00,66.3,53.8,30.04,ESE,122,0.0,0.0,64,0.00,,,0.00,Wunderground v.1.15,2013-06-05 23:50:00,
2013-06-05 19:55:00,66.0,53.0,30.04,ESE,122,0.0,0.0,63,0.00,,,0.00,Wunderground v.1.15,2013-06-05 23:55:00,
2013-06-05 20:00:00,65.8,53.3,30.05,ESE,122,0.0,0.0,64,0.00,,,0.00,Wunderground v.1.15,2013-06-06 00:00:00,
2013-06-05 20:10:00,65.3,53.2,30.06,ESE,122,0.0,0.0,65,0.00,,,0.00,Wunderground v.1.15,2013-06-06 00:10:00,
2013-06-05 20:15:00,65.1,53.0,30.06,SE,141,0.0,0.0,65,0.00,,,0.00,Wunderground v.1.15,2013-06-06 00:15:00,
2013-06-05 20:25:00,64.5,52.5,30.06,SW,232,0.0,0.0,65,0.00,,,0.00,Wunderground v.1.15,2013-06-06 00:25:00,
2013-06-05 20:30:00,64.3,52.3,30.06,SW,232,0.0,0.0,65,0.00,,,0.00,Wunderground v.1.15,2013-06-06 00:30:00,
2013-06-05 20:35:00,64.0,52.0,30.05,SW,232,0.0,0.0,65,0.00,,,0.00,Wunderground v.1.15,2013-06-06 00:35:00,
2013-06-05 20:40:00,63.7,52.1,30.05,SW,232,0.0,0.0,66,0.00,,,0.00,Wunderground v.1.15,2013-06-06 00:40:00,
2013-06-05 20:50:00,63.1,51.6,30.06,SW,232,0.0,0.0,66,0.00,,,0.00,Wunderground v.1.15,2013-06-06 00:50:00,
2013-06-05 20:55:00,62.8,51.7,30.06,SW,232,0.0,0.0,67,0.00,,,0.00,Wunderground v.1.15,2013-06-06 00:55:00,
2013-06-05 21:00:00,62.5,52.6,30.06,SW,232,0.0,0.0,70,0.00,,,0.00,Wunderground v.1.15,2013-06-06 01:00:00,
2013-06-05 21:10:00,61.8,51.9,30.06,SW,232,0.0,0.0,70,0.00,,,0.00,Wunderground v.1.15,2013-06-06 01:10:00,
2013-06-05 21:15:00,61.4,51.9,30.07,SW,232,0.0,0.0,71,0.00,,,0.00,Wunderground v.1.15,2013-06-06 01:15:00,
2013-06-05 21:20:00,61.0,51.9,30.07,SW,232,0.0,0.0,72,0.00,,,0.00,Wunderground v.1.15,2013-06-06 01:20:00,
2013-06-05 21:30:00,60.3,52.7,30.08,SW,232,0.0,0.0,76,0.00,,,0.00,Wunderground v.1.15,2013-06-06 01:30:00,
2013-06-05 21:35:00,60.1,52.1,30.07,SW,232,0.0,0.0,75,0.00,,,0.00,Wunderground v.1.15,2013-06-06 01:35:00,
2013-06-05 21:40:00,59.7,52.5,30.07,SW,232,0.0,0.0,77,0.00,,,0.00,Wunderground v.1.15,2013-06-06 01:40:00,
2013-06-05 21:45:00,59.5,52.3,30.07,SW,232,0.0,0.0,77,0.00,,,0.00,Wunderground v.1.15,2013-06-06 01:45:00,
2013-06-05 21:55:00,59.0,52.5,30.08,SW,232,0.0,0.0,79,0.00,,,0.00,Wunderground v.1.15,2013-06-06 01:55:00,
2013-06-05 22:00:00,58.7,52.5,30.08,SW,232,0.0,0.0,80,0.00,,,0.00,Wunderground v.1.15,2013-06-06 02:00:00,
2013-06-05 22:10:00,57.8,51.7,30.08,SW,232,0.0,0.0,80,0.00,,,0.00,Wunderground v.1.15,2013-06-06 02:10:00,
2013-06-05 22:15:00,57.5,51.7,30.08,SW,232,0.0,0.0,81,0.00,,,0.00,Wunderground v.1.15,2013-06-06 02:15:00,
2013-06-05 22:20:00,57.2,51.4,30.08,SW,232,0.0,0.0,81,0.00,,,0.00,Wunderground v.1.15,2013-06-06 02:20:00,
2013-06-05 22:25:00,56.8,51.4,30.08,SW,232,0.0,0.0,82,0.00,,,0.00,Wunderground v.1.15,2013-06-06 02:25:00,
2013-06-05 22:30:00,56.6,51.2,30.08,SW,232,0.0,0.0,82,0.00,,,0.00,Wunderground v.1.15,2013-06-06 02:30:00,
2013-06-05 22:40:00,56.2,51.1,30.08,SW,232,0.0,0.0,83,0.00,,,0.00,Wunderground v.1.15,2013-06-06 02:40:00,
2013-06-05 22:45:00,55.9,50.8,30.08,SW,232,0.0,0.0,83,0.00,,,0.00,Wunderground v.1.15,2013-06-06 02:45:00,
2013-06-05 22:50:00,55.7,51.3,30.08,SW,232,0.0,0.0,85,0.00,,,0.00,Wunderground v.1.15,2013-06-06 02:50:00,
2013-06-05 23:00:00,55.3,50.9,30.08,SW,232,0.0,0.0,85,0.00,,,0.00,Wunderground v.1.15,2013-06-06 03:00:00,
2013-06-05 23:10:00,54.7,50.9,30.08,SW,232,0.0,0.0,87,0.00,,,0.00,Wunderground v.1.15,2013-06-06 03:10:00,
2013-06-05 23:20:00,54.4,50.6,30.08,SW,232,0.0,0.0,87,0.00,,,0.00,Wunderground v.1.15,2013-06-06 03:20:00,
2013-06-05 23:25:00,54.2,50.4,30.08,SW,232,0.0,0.0,87,0.00,,,0.00,Wunderground v.1.15,2013-06-06 03:25:00,
2013-06-05 23:30:00,54.1,50.6,30.08,SW,232,0.0,0.0,88,0.00,,,0.00,Wunderground v.1.15,2013-06-06 03:30:00,
2013-06-05 23:40:00,53.9,50.7,30.08,SW,232,0.0,0.0,89,0.00,,,0.00,Wunderground v.1.15,2013-06-06 03:40:00,
2013-06-05 23:45:00,53.7,50.5,30.08,SW,232,0.0,0.0,89,0.00,,,0.00,Wunderground v.1.15,2013-06-06 03:45:00,
2013-06-05 23:50:00,53.7,50.5,30.08,SW,232,0.0,0.0,89,0.00,,,0.00,Wunderground v.1.15,2013-06-06 03:50:00,
2013-06-05 23:55:00,53.7,50.8,30.08,SW,232,0.0,0.0,90,0.00,,,0.00,Wunderground v.1.15,2013-06-06 03:55:00,